Location: Oshawa
(43.9000°N, 78.8670°W)
Time: 18:30:12
(UTC-04:00)

Altair - Visible Passes

Search period start: 25 September 2016 00:00
Search period end: 05 October 2016 00:00
Orbit: 1501 x 1683 km, 47.2° (Epoch: 24 September)

Date Brightness Start Highest point End Pass type
(mag) Time Alt. Az. Time Alt. Az. Time Alt. Az.
25 Sep 9.1 03:20:56 19° SE 03:23:12 20° SE 03:29:55 10° E visible
25 Sep 8.0 05:18:59 19° SW 05:26:31 60° SE 05:36:22 10° ENE visible
26 Sep 9.2 02:57:29 18° SE 02:58:11 18° SE 03:04:20 10° E visible
26 Sep 8.0 04:55:32 27° SSW 05:01:23 57° SE 05:11:11 10° ENE visible
27 Sep 9.3 02:34:00 16° ESE 02:34:00 16° ESE 02:38:39 10° E visible
27 Sep 8.0 04:32:02 35° SSW 04:36:15 53° SE 04:45:57 10° ENE visible
27 Sep 7.8 06:30:39 10° WSW 06:40:54 83° NNW 06:51:01 10° ENE visible
28 Sep 9.5 02:10:27 13° ESE 02:10:27 13° ESE 02:12:50 10° E visible
28 Sep 8.0 04:08:29 42° S 04:11:07 50° SE 04:20:43 10° ENE visible
28 Sep 7.7 06:06:31 14° WSW 06:15:40 85° NNW 06:25:49 10° ENE visible
29 Sep 8.0 03:44:53 45° SSE 03:46:00 47° SE 03:55:29 10° ENE visible
29 Sep 7.7 05:42:55 21° WSW 05:50:26 88° NNW 06:00:37 10° ENE visible
30 Sep 8.2 03:21:15 43° SE 03:21:15 43° SE 03:30:14 10° ENE visible
30 Sep 7.6 05:19:17 30° WSW 05:25:13 90° SSE 05:35:24 10° ENE visible
01 Oct 8.4 02:57:35 38° ESE 02:57:35 38° ESE 03:04:58 10° ENE visible
01 Oct 7.6 04:55:36 41° WSW 05:00:00 87° SSE 05:10:12 10° ENE visible
02 Oct 8.7 02:33:52 31° E 02:33:52 31° E 02:39:40 10° ENE visible
02 Oct 7.5 04:31:54 54° SW 04:34:48 84° SSE 04:45:00 10° ENE visible
02 Oct 7.8 06:29:57 10° W 06:40:10 74° N 06:50:15 10° E visible
03 Oct 9.0 02:10:08 24° E 02:10:08 24° E 02:14:22 10° ENE visible
03 Oct 7.4 04:08:10 69° SW 04:09:36 81° SSE 04:19:47 10° ENE visible
03 Oct 7.8 06:06:11 16° W 06:14:54 74° N 06:25:02 10° E visible
04 Oct 9.3 01:46:23 18° E 01:46:23 18° E 01:49:02 10° ENE visible
04 Oct 7.5 03:44:24 77° SSE 03:44:24 77° SSE 03:54:35 10° ENE visible
04 Oct 7.7 05:42:25 23° W 05:49:40 74° N 05:59:48 10° E visible
